QPF
0.06 0.07 0.10 0.13 0.10 0.06 0.04 0.04 0.03 0.03 0.03 0.02 0.02 0.01 0.02 0.02 0.02 0.03 0.06 0.07 0.07 0.05 0.04 0.05 0.05 0.07 0.05 0.04 0.03 0.03 0.04 0.03 0.02 0.01 0.01 0.01 0.03 0.03 0.02 0.02 0.03 0.03 0.02
0.06 0.06 0.08 0.07 0.07 0.05 0.04 0.04 0.02 0.02 0.02 0.01 0.01 0.01 0.01 0.02 0.03 0.03 0.05 0.05 0.05 0.04 0.02 0.02 0.03 0.04 0.04 0.04 0.04 0.03 0.03 0.02 0.02 0.02 0.02 0.03 0.04 0.03 0.02 0.02 0.03 0.03 0.03
0.05 0.04 0.06 0.09 0.10 0.07 0.05 0.04 0.03 0.02 0.01 0.01 0.00 0.01 0.01 0.02 0.03 0.04 0.04 0.03 0.02 0.03 0.03 0.03 0.03 0.03 0.03 0.03 0.03 0.03 0.02 0.02 0.02 0.03 0.04 0.05 0.08 0.07 0.06 0.04 0.04 0.04 0.05
0.08 0.06 0.04 0.04 0.06 0.07 0.05 0.03 0.02 0.01 0.01 0.00 0.01 0.01 0.01 0.01 0.02 0.02 0.02 0.03 0.03 0.03 0.03 0.03 0.03 0.03 0.03 0.03 0.03 0.02 0.02 0.03 0.03 0.04 0.04 0.04 0.08 0.09 0.07 0.05 0.04 0.04 0.05
0.11 0.08 0.06 0.04 0.03 0.03 0.03 0.02 0.01 0.01 0.01 0.01 0.01 0.01 0.01 0.01 0.02 0.02 0.02 0.03 0.03 0.03 0.03 0.02 0.02 0.03 0.04 0.03 0.03 0.03 0.03 0.04 0.04 0.04 0.03 0.02 0.04 0.07 0.05 0.04 0.05 0.04 0.04
0.12 0.10 0.09 0.07 0.06 0.05 0.04 0.02 0.01 0.01 0.01 0.02 0.02 0.02 0.03 0.03 0.03 0.03 0.04 0.04 0.03 0.02 0.02 0.02 0.02 0.02 0.03 0.03 0.04 0.04 0.03 0.03 0.03 0.03 0.03 0.02 0.03 0.07 0.07 0.05 0.03 0.03 0.03
0.12 0.12 0.14 0.10 0.07 0.06 0.04 0.03 0.03 0.03 0.03 0.04 0.03 0.04 0.04 0.04 0.03 0.03 0.03 0.02 0.02 0.02 0.02 0.01 0.02 0.03 0.03 0.03 0.04 0.04 0.04 0.04 0.03 0.03 0.03 0.03 0.02 0.03 0.03 0.03 0.03 0.03 0.03
0.17 0.14 0.12 0.09 0.05 0.04 0.04 0.04 0.04 0.04 0.05 0.04 0.04 0.04 0.04 0.03 0.03 0.02 0.02 0.02 0.02 0.02 0.02 0.02 0.03 0.03 0.03 0.03 0.03 0.04 0.03 0.03 0.02 0.02 0.02 0.02 0.02 0.02 0.01 0.01 0.02 0.03 0.02
0.17 0.13 0.09 0.07 0.05 0.04 0.05 0.06 0.05 0.04 0.04 0.04 0.04 0.05 0.04 0.04 0.03 0.03 0.03 0.03 0.03 0.02 0.03 0.03 0.04 0.03 0.03 0.03 0.03 0.02 0.02 0.02 0.02 0.02 0.01 0.01 0.01 0.01 0.01 0.02 0.02 0.03 0.03
0.14 0.15 0.11 0.08 0.06 0.05 0.05 0.05 0.04 0.03 0.03 0.03 0.03 0.03 0.02 0.03 0.03 0.03 0.03 0.04 0.04 0.04 0.04 0.04 0.03 0.02 0.02 0.01 0.01 0.02 0.02 0.03 0.03 0.02 0.02 0.01 0.01 0.01 0.02 0.02 0.03 0.04 0.04
0.08 0.10 0.10 0.08 0.06 0.04 0.04 0.04 0.04 0.02 0.02 0.02 0.02 0.02 0.02 0.03 0.04 0.05 0.06 0.05 0.04 0.04 0.03 0.03 0.02 0.02 0.01 0.01 0.01 0.02 0.02 0.02 0.02 0.02 0.01 0.02 0.02 0.01 0.01 0.02 0.04 0.05 0.05
0.06 0.06 0.06 0.04 0.03 0.03 0.03 0.03 0.03 0.02 0.02 0.01 0.01 0.01 0.02 0.02 0.03 0.04 0.04 0.04 0.04 0.04 0.04 0.03 0.02 0.01 0.01 0.01 0.01 0.02 0.02 0.01 0.01 0.01 0.01 0.01 0.01 0.01 0.01 0.01 0.02 0.03 0.04
0.03 0.04 0.03 0.02 0.02 0.03 0.03 0.03 0.02 0.02 0.01 0.01 0.01 0.01 0.01 0.01 0.01 0.01 0.02 0.03 0.04 0.03 0.02 0.02 0.02 0.01 0.01 0.01 0.01 0.01 0.01 0.01 0.01 0.00 0.00 0.00 0.00 0.01 0.01 0.01 0.02 0.02 0.02
0.02 0.02 0.02 0.02 0.01 0.02 0.02 0.02 0.02 0.02 0.01 0.01 0.01 0.01 0.00 0.01 0.01 0.01 0.01 0.02 0.02 0.02 0.02 0.01 0.01 0.01 0.02 0.01 0.01 0.01 0.01 0.01 0.01 0.00 0.00 0.00 0.00 0.01 0.01 0.02 0.02 0.01 0.01
0.01 0.01 0.02 0.02 0.02 0.02 0.01 0.01 0.01 0.01 0.01 0.01 0.01 0.00 0.00 0.01 0.01 0.01 0.01 0.01 0.01 0.01 0.02 0.02 0.01 0.00 0.01 0.01 0.00 0.01 0.00 0.01 0.00 0.00 0.00 0.00 0.00 0.01 0.01 0.01 0.01 0.01 0.01
0.02 0.01 0.01 0.02 0.03 0.02 0.01 0.01 0.01 0.01 0.01 0.01 0.01 0.01 0.01 0.01 0.01 0.01 0.01 0.01 0.01 0.01 0.02 0.02 0.01 0.01 0.00 0.00 0.00 0.00 0.00 0.00 0.00 0.00 0.00 0.00 0.00 0.01 0.01 0.01 0.01 0.01 0.01
0.04 0.03 0.02 0.01 0.01 0.01 0.01 0.01 0.01 0.01 0.01 0.01 0.01 0.01 0.01 0.01 0.01 0.02 0.01 0.01 0.01 0.01 0.01 0.01 0.01 0.01 0.00 0.00 0.00 0.00 0.00 0.01 0.00 0.00 0.00 0.00 0.00 0.00 0.00 0.00 0.00 0.01 0.02
0.05 0.05 0.05 0.04 0.02 0.01 0.01 0.01 0.01 0.01 0.01 0.01 0.00 0.00 0.01 0.01 0.01 0.01 0.01 0.00 0.00 0.01 0.01 0.01 0.00 0.00 0.00 0.00 0.01 0.01 0.01 0.01 0.01 0.00 0.00 0.00 0.00 0.00 0.00 0.00 0.00 0.00 0.01
0.02 0.03 0.04 0.06 0.04 0.02 0.01 0.01 0.01 0.01 0.00 0.00 0.00 0.00 0.01 0.01 0.00 0.00 0.01 0.00 0.01 0.01 0.01 0.01 0.01 0.01 0.01 0.01 0.01 0.01 0.01 0.01 0.01 0.01 0.01 0.01 0.01 0.01 0.01 0.00 0.00 0.00 0.01
0.02 0.01 0.02 0.03 0.04 0.03 0.01 0.01 0.01 0.01 0.01 0.01 0.01 0.01 0.00 0.00 0.00 0.00 0.00 0.00 0.00 0.01 0.01 0.01 0.01 0.01 0.01 0.02 0.02 0.01 0.01 0.02 0.02 0.01 0.01 0.02 0.02 0.01 0.01 0.01 0.01 0.00 0.02
0.03 0.02 0.02 0.02 0.02 0.02 0.01 0.01 0.01 0.00 0.00 0.00 0.00 0.01 0.01 0.00 0.00 0.00 0.00 0.00 0.00 0.00 0.01 0.01 0.01 0.01 0.01 0.01 0.01 0.01 0.01 0.01 0.01 0.01 0.02 0.02 0.02 0.02 0.02 0.01 0.01 0.01 0.02
0.06 0.03 0.02 0.02 0.01 0.01 0.01 0.01 0.00 0.00 0.00 0.00 0.00 0.00 0.01 0.01 0.00 0.00 0.00 0.00 0.00 0.00 0.00 0.01 0.01 0.00 0.00 0.00 0.00 0.01 0.01 0.01 0.01 0.02 0.02 0.02 0.02 0.02 0.02 0.02 0.02 0.02 0.03
0.07 0.04 0.03 0.02 0.01 0.01 0.01 0.01 0.00 0.00 0.00 0.00 0.00 0.00 0.00 0.00 0.00 0.00 0.00 0.00 0.00 0.00 0.00 0.00 0.00 0.00 0.00 0.00 0.00 0.00 0.00 0.01 0.01 0.02 0.02 0.02 0.01 0.02 0.02 0.02 0.02 0.02 0.02
0.06 0.04 0.02 0.01 0.01 0.01 0.00 0.00 0.00 0.00 0.00 0.00 0.00 0.00 0.00 0.00 0.00 0.00 0.00 0.00 0.00 0.00 0.00 0.00 0.00 0.00 0.00 0.00 0.00 0.00 0.01 0.01 0.01 0.01 0.01 0.01 0.01 0.01 0.01 0.02 0.01 0.01 0.01
0.06 0.03 0.01 0.00 0.00 0.00 0.00 0.00 0.00 0.00 0.00 0.00 0.00 0.00 0.00 0.00 0.00 0.00 0.00 0.00 0.00 0.00 0.00 0.00 0.00 0.00 0.00 0.00 0.01 0.01 0.01 0.00 0.01 0.01 0.01 0.01 0.01 0.01 0.01 0.01 0.01 0.01 0.01
0.03 0.03 0.01 0.00 0.00 0.00 0.00 0.00 0.00 0.00 0.00 0.00 0.00 0.00 0.00 0.00 0.00 0.00 0.00 0.00 0.00 0.00 0.00 0.00 0.01 0.01 0.01 0.01 0.01 0.01 0.01 0.01 0.01 0.01 0.01 0.01 0.01 0.02 0.01 0.01 0.01 0.01 0.01
MSLP
1017.26 1017.79 1018.30 1018.71 1018.95 1019.01 1018.91 1018.68 1018.42 1018.18 1018.03 1017.98 1018.04 1018.16 1018.30 1018.41 1018.45 1018.42 1018.33 1018.19 1018.06 1017.97 1017.92 1017.93 1017.98 1018.04 1018.08 1018.09 1018.06 1018.00 1017.91 1017.82 1017.74 1017.68 1017.61 1017.54 1017.42 1017.24 1017.01 1016.72 1016.42 1016.15 1015.93
1017.39 1018.02 1018.60 1019.04 1019.29 1019.34 1019.21 1018.98 1018.73 1018.53 1018.44 1018.47 1018.59 1018.77 1018.94 1019.05 1019.06 1018.96 1018.78 1018.56 1018.35 1018.18 1018.07 1018.04 1018.06 1018.10 1018.13 1018.12 1018.06 1017.96 1017.83 1017.70 1017.59 1017.50 1017.42 1017.34 1017.23 1017.08 1016.87 1016.61 1016.34 1016.09 1015.90
1017.54 1018.24 1018.88 1019.36 1019.62 1019.66 1019.54 1019.32 1019.09 1018.94 1018.91 1019.00 1019.19 1019.41 1019.61 1019.71 1019.69 1019.54 1019.29 1019.00 1018.71 1018.48 1018.32 1018.25 1018.23 1018.24 1018.24 1018.20 1018.10 1017.96 1017.80 1017.63 1017.49 1017.38 1017.30 1017.23 1017.15 1017.04 1016.88 1016.69 1016.47 1016.27 1016.12
1017.77 1018.53 1019.21 1019.71 1019.98 1020.04 1019.92 1019.72 1019.52 1019.41 1019.43 1019.57 1019.80 1020.05 1020.25 1020.34 1020.29 1020.10 1019.80 1019.45 1019.11 1018.83 1018.63 1018.52 1018.46 1018.44 1018.40 1018.31 1018.18 1017.99 1017.79 1017.59 1017.42 1017.31 1017.23 1017.19 1017.16 1017.11 1017.02 1016.90 1016.76 1016.63 1016.53
1018.14 1018.92 1019.62 1020.13 1020.42 1020.49 1020.39 1020.21 1020.03 1019.95 1019.98 1020.14 1020.37 1020.63 1020.81 1020.89 1020.81 1020.59 1020.26 1019.88 1019.50 1019.18 1018.95 1018.80 1018.70 1018.64 1018.55 1018.42 1018.24 1018.02 1017.78 1017.55 1017.37 1017.25 1017.19 1017.17 1017.19 1017.20 1017.20 1017.17 1017.12 1017.06 1017.02
1018.64 1019.43 1020.13 1020.65 1020.95 1021.03 1020.94 1020.77 1020.60 1020.52 1020.55 1020.69 1020.90 1021.12 1021.28 1021.32 1021.21 1020.97 1020.63 1020.23 1019.84 1019.51 1019.24 1019.05 1018.92 1018.80 1018.67 1018.49 1018.26 1018.00 1017.73 1017.48 1017.28 1017.15 1017.10 1017.12 1017.17 1017.25 1017.32 1017.37 1017.41 1017.45 1017.48
1019.26 1020.04 1020.73 1021.24 1021.54 1021.62 1021.54 1021.37 1021.20 1021.09 1021.08 1021.18 1021.34 1021.50 1021.61 1021.62 1021.49 1021.24 1020.90 1020.50 1020.11 1019.76 1019.48 1019.25 1019.07 1018.90 1018.71 1018.48 1018.21 1017.91 1017.60 1017.33 1017.12 1016.99 1016.94 1016.96 1017.04 1017.16 1017.29 1017.42 1017.55 1017.68 1017.80
1019.94 1020.68 1021.35 1021.84 1022.13 1022.21 1022.13 1021.95 1021.76 1021.61 1021.55 1021.58 1021.67 1021.76 1021.82 1021.79 1021.64 1021.39 1021.06 1020.68 1020.30 1019.94 1019.64 1019.38 1019.14 1018.92 1018.67 1018.38 1018.07 1017.73 1017.40 1017.10 1016.88 1016.73 1016.67 1016.69 1016.78 1016.92 1017.08 1017.27 1017.47 1017.68 1017.90
1020.60 1021.30 1021.93 1022.40 1022.66 1022.73 1022.64 1022.45 1022.23 1022.04 1021.92 1021.87 1021.88 1021.91 1021.90 1021.83 1021.68 1021.44 1021.12 1020.77 1020.40 1020.05 1019.72 1019.43 1019.14 1018.85 1018.54 1018.20 1017.84 1017.47 1017.12 1016.81 1016.56 1016.40 1016.32 1016.32 1016.40 1016.53 1016.71 1016.93 1017.19 1017.47 1017.78
1021.18 1021.83 1022.41 1022.84 1023.08 1023.12 1023.02 1022.81 1022.56 1022.33 1022.16 1022.04 1021.98 1021.94 1021.88 1021.79 1021.63 1021.40 1021.12 1020.79 1020.44 1020.09 1019.75 1019.41 1019.07 1018.72 1018.35 1017.96 1017.56 1017.16 1016.80 1016.48 1016.22 1016.04 1015.94 1015.92 1015.96 1016.07 1016.24 1016.47 1016.76 1017.11 1017.50
1021.65 1022.24 1022.75 1023.12 1023.32 1023.34 1023.22 1023.00 1022.74 1022.48 1022.26 1022.10 1021.98 1021.89 1021.80 1021.69 1021.53 1021.32 1021.07 1020.77 1020.44 1020.10 1019.73 1019.35 1018.96 1018.54 1018.12 1017.68 1017.26 1016.85 1016.48 1016.16 1015.90 1015.72 1015.60 1015.54 1015.55 1015.62 1015.77 1016.00 1016.31 1016.70 1017.17
1021.99 1022.51 1022.94 1023.24 1023.39 1023.38 1023.25 1023.03 1022.76 1022.50 1022.26 1022.07 1021.92 1021.80 1021.69 1021.57 1021.43 1021.24 1021.02 1020.74 1020.43 1020.08 1019.69 1019.27 1018.82 1018.36 1017.88 1017.41 1016.96 1016.55 1016.19 1015.89 1015.64 1015.46 1015.34 1015.27 1015.25 1015.29 1015.41 1015.63 1015.94 1016.36 1016.88
1022.21 1022.64 1022.99 1023.21 1023.31 1023.27 1023.14 1022.93 1022.68 1022.43 1022.20 1022.00 1021.85 1021.72 1021.60 1021.48 1021.35 1021.19 1020.98 1020.73 1020.42 1020.06 1019.65 1019.19 1018.69 1018.17 1017.65 1017.15 1016.69 1016.29 1015.95 1015.68 1015.47 1015.31 1015.20 1015.13 1015.10 1015.13 1015.23 1015.42 1015.73 1016.16 1016.71
1022.33 1022.67 1022.92 1023.07 1023.12 1023.06 1022.94 1022.75 1022.54 1022.33 1022.13 1021.95 1021.80 1021.68 1021.56 1021.45 1021.33 1021.18 1020.99 1020.74 1020.43 1020.06 1019.61 1019.11 1018.57 1018.01 1017.45 1016.93 1016.47 1016.08 1015.77 1015.54 1015.37 1015.26 1015.19 1015.14 1015.12 1015.14 1015.23 1015.41 1015.71 1016.14 1016.69
1022.36 1022.61 1022.78 1022.86 1022.87 1022.81 1022.70 1022.56 1022.41 1022.25 1022.09 1021.95 1021.82 1021.71 1021.60 1021.50 1021.38 1021.23 1021.04 1020.79 1020.47 1020.08 1019.60 1019.06 1018.48 1017.87 1017.29 1016.75 1016.28 1015.91 1015.64 1015.46 1015.35 1015.29 1015.27 1015.26 1015.28 1015.32 1015.41 1015.59 1015.88 1016.29 1016.84
1022.32 1022.50 1022.60 1022.63 1022.61 1022.56 1022.49 1022.40 1022.31 1022.21 1022.11 1022.01 1021.91 1021.81 1021.71 1021.60 1021.48 1021.33 1021.13 1020.88 1020.54 1020.12 1019.63 1019.05 1018.43 1017.80 1017.19 1016.63 1016.17 1015.82 1015.58 1015.44 1015.39 1015.39 1015.43 1015.48 1015.53 1015.61 1015.73 1015.91 1016.19 1016.58 1017.10
1022.23 1022.34 1022.39 1022.40 1022.38 1022.35 1022.32 1022.30 1022.27 1022.24 1022.19 1022.12 1022.05 1021.96 1021.86 1021.75 1021.61 1021.45 1021.25 1020.98 1020.64 1020.20 1019.69 1019.10 1018.46 1017.80 1017.18 1016.61 1016.15 1015.81 1015.60 1015.50 1015.50 1015.56 1015.65 1015.76 1015.87 1015.99 1016.13 1016.33 1016.60 1016.97 1017.45
1022.09 1022.17 1022.20 1022.20 1022.19 1022.20 1022.22 1022.25 1022.28 1022.29 1022.29 1022.26 1022.20 1022.11 1022.01 1021.89 1021.75 1021.57 1021.36 1021.10 1020.75 1020.32 1019.81 1019.22 1018.58 1017.92 1017.29 1016.73 1016.28 1015.95 1015.75 1015.68 1015.71 1015.81 1015.95 1016.11 1016.27 1016.43 1016.60 1016.80 1017.07 1017.41 1017.85
1021.93 1022.00 1022.03 1022.04 1022.06 1022.10 1022.16 1022.24 1022.31 1022.36 1022.37 1022.36 1022.30 1022.21 1022.11 1021.98 1021.83 1021.66 1021.46 1021.20 1020.88 1020.48 1019.99 1019.43 1018.81 1018.18 1017.58 1017.04 1016.59 1016.27 1016.09 1016.03 1016.08 1016.20 1016.36 1016.55 1016.74 1016.92 1017.12 1017.33 1017.58 1017.89 1018.28
1021.77 1021.86 1021.90 1021.94 1021.99 1022.05 1022.14 1022.23 1022.32 1022.38 1022.40 1022.38 1022.32 1022.23 1022.11 1021.98 1021.84 1021.69 1021.52 1021.30 1021.02 1020.67 1020.24 1019.73 1019.18 1018.60 1018.04 1017.53 1017.11 1016.81 1016.63 1016.57 1016.62 1016.74 1016.91 1017.10 1017.30 1017.49 1017.68 1017.89 1018.12 1018.40 1018.73
1021.65 1021.76 1021.83 1021.89 1021.96 1022.03 1022.12 1022.21 1022.28 1022.33 1022.33 1022.30 1022.23 1022.13 1022.01 1021.90 1021.78 1021.66 1021.53 1021.37 1021.16 1020.88 1020.54 1020.12 1019.65 1019.16 1018.66 1018.21 1017.83 1017.54 1017.37 1017.30 1017.33 1017.43 1017.58 1017.76 1017.94 1018.12 1018.29 1018.48 1018.68 1018.92 1019.20
1021.57 1021.72 1021.81 1021.89 1021.96 1022.02 1022.09 1022.15 1022.19 1022.20 1022.17 1022.11 1022.03 1021.92 1021.82 1021.72 1021.64 1021.57 1021.50 1021.41 1021.29 1021.12 1020.88 1020.57 1020.20 1019.80 1019.40 1019.01 1018.68 1018.42 1018.25 1018.17 1018.17 1018.24 1018.35 1018.48 1018.62 1018.77 1018.91 1019.06 1019.23 1019.42 1019.64
1021.56 1021.73 1021.84 1021.91 1021.97 1022.01 1022.03 1022.04 1022.03 1021.99 1021.93 1021.84 1021.75 1021.65 1021.56 1021.50 1021.46 1021.45 1021.45 1021.44 1021.41 1021.34 1021.21 1021.01 1020.76 1020.47 1020.15 1019.84 1019.56 1019.33 1019.17 1019.07 1019.04 1019.06 1019.12 1019.19 1019.28 1019.38 1019.48 1019.59 1019.72 1019.86 1020.03
1021.59 1021.77 1021.88 1021.95 1021.97 1021.96 1021.94 1021.89 1021.82 1021.74 1021.64 1021.53 1021.43 1021.35 1021.29 1021.26 1021.27 1021.32 1021.38 1021.45 1021.50 1021.52 1021.49 1021.39 1021.24 1021.05 1020.82 1020.59 1020.36 1020.16 1020.00 1019.89 1019.82 1019.78 1019.78 1019.80 1019.83 1019.87 1019.92 1019.99 1020.08 1020.18 1020.31
1021.62 1021.80 1021.91 1021.95 1021.93 1021.88 1021.80 1021.70 1021.59 1021.46 1021.34 1021.23 1021.13 1021.06 1021.03 1021.05 1021.10 1021.19 1021.31 1021.43 1021.54 1021.62 1021.66 1021.65 1021.58 1021.47 1021.32 1021.14 1020.96 1020.79 1020.63 1020.49 1020.39 1020.30 1020.24 1020.20 1020.17 1020.16 1020.17 1020.20 1020.25 1020.33 1020.42
1021.60 1021.78 1021.87 1021.88 1021.84 1021.75 1021.63 1021.48 1021.34 1021.19 1021.06 1020.95 1020.87 1020.83 1020.83 1020.87 1020.96 1021.08 1021.22 1021.36 1021.50 1021.62 1021.70 1021.73 1021.72 1021.65 1021.55 1021.42 1021.27 1021.11 1020.95 1020.80 1020.66 1020.53 1020.42 1020.33 1020.25 1020.20 1020.18 1020.18 1020.21 1020.26 1020.34
Thickness
5718 5717 5715 5713 5710 5707 5705 5703 5700 5697 5695 5691 5688 5684 5681 5678 5676 5674 5672 5671 5669 5667 5666 5664 5664 5663 5663 5663 5663 5663 5662 5662 5664 5663 5663 5665 5667 5668 5670 5670 5671 5672 5674
5714 5714 5711 5707 5703 5701 5699 5696 5694 5691 5689 5686 5683 5680 5676 5672 5670 5667 5665 5664 5662 5660 5659 5657 5656 5656 5655 5654 5654 5653 5652 5652 5653 5652 5650 5650 5653 5657 5661 5662 5663 5664 5665
5712 5709 5706 5701 5697 5694 5692 5690 5687 5685 5682 5680 5677 5674 5669 5665 5661 5659 5657 5656 5655 5653 5651 5650 5649 5647 5646 5645 5645 5645 5643 5641 5643 5643 5641 5639 5639 5642 5647 5651 5652 5654 5655
5708 5704 5700 5696 5693 5689 5686 5684 5681 5678 5676 5673 5670 5666 5661 5657 5655 5652 5650 5649 5647 5645 5644 5643 5641 5639 5638 5637 5637 5637 5635 5634 5633 5634 5635 5634 5634 5632 5633 5638 5641 5643 5645
5703 5699 5696 5691 5688 5685 5681 5678 5674 5671 5669 5667 5663 5659 5655 5652 5650 5647 5643 5640 5639 5637 5635 5634 5633 5631 5630 5628 5628 5627 5627 5626 5624 5624 5625 5625 5626 5626 5624 5625 5628 5631 5634
5698 5694 5691 5686 5682 5679 5674 5671 5667 5665 5663 5660 5656 5652 5649 5646 5642 5638 5634 5632 5630 5628 5627 5626 5624 5623 5621 5620 5619 5618 5618 5617 5617 5616 5617 5616 5616 5616 5616 5616 5618 5620 5623
5691 5686 5683 5680 5675 5671 5668 5665 5661 5657 5654 5652 5648 5645 5642 5639 5635 5631 5627 5623 5621 5619 5618 5617 5616 5614 5613 5612 5611 5610 5609 5609 5609 5609 5609 5610 5610 5610 5609 5609 5609 5611 5613
5684 5680 5677 5673 5668 5664 5661 5658 5653 5649 5646 5643 5640 5637 5635 5631 5627 5623 5620 5616 5614 5612 5610 5609 5607 5606 5605 5604 5603 5601 5601 5602 5601 5601 5602 5602 5603 5603 5603 5603 5602 5603 5604
5679 5674 5670 5666 5661 5657 5653 5650 5646 5642 5638 5635 5632 5629 5626 5623 5619 5616 5613 5610 5607 5605 5603 5601 5599 5598 5597 5595 5594 5593 5593 5593 5593 5593 5594 5595 5596 5597 5597 5598 5598 5597 5597
5672 5668 5664 5658 5654 5651 5646 5643 5638 5634 5631 5628 5625 5622 5619 5616 5612 5608 5605 5603 5600 5598 5596 5593 5591 5589 5587 5586 5585 5585 5585 5585 5585 5586 5587 5587 5588 5589 5590 5591 5591 5592 5592
5666 5662 5657 5653 5649 5644 5639 5635 5631 5628 5624 5621 5617 5614 5611 5608 5604 5601 5598 5595 5593 5590 5588 5586 5583 5581 5579 5578 5577 5577 5577 5576 5577 5578 5579 5580 5581 5582 5583 5584 5585 5585 5585
5660 5656 5651 5647 5643 5638 5633 5629 5625 5622 5618 5614 5611 5606 5603 5600 5596 5593 5591 5588 5586 5583 5581 5579 5577 5575 5572 5571 5570 5569 5570 5569 5569 5570 5572 5573 5575 5575 5575 5576 5577 5578 5579
5654 5649 5645 5640 5636 5632 5628 5623 5619 5616 5612 5608 5604 5599 5596 5593 5589 5586 5584 5581 5579 5577 5574 5572 5569 5568 5566 5564 5563 5563 5563 5562 5563 5564 5565 5566 5567 5567 5568 5569 5570 5571 5572
5650 5644 5638 5634 5630 5626 5622 5618 5613 5610 5606 5601 5597 5593 5589 5586 5583 5580 5577 5575 5572 5570 5567 5565 5563 5561 5560 5558 5558 5557 5557 5557 5557 5558 5559 5560 5561 5562 5562 5563 5563 5564 5564
5645 5640 5634 5629 5625 5621 5616 5612 5608 5604 5601 5596 5591 5587 5583 5580 5577 5574 5571 5569 5566 5564 5561 5559 5557 5555 5554 5553 5552 5552 5552 5551 5551 5552 5553 5554 5556 5557 5557 5558 5557 5558 5558
5641 5636 5631 5626 5622 5617 5612 5607 5603 5599 5595 5590 5586 5583 5579 5575 5572 5570 5567 5564 5561 5558 5556 5553 5551 5550 5549 5548 5548 5548 5547 5546 5545 5546 5547 5549 5550 5551 5553 5553 5554 5554 5553
5638 5632 5628 5623 5618 5614 5609 5603 5599 5596 5591 5587 5583 5579 5576 5572 5569 5566 5563 5559 5557 5554 5551 5549 5547 5545 5544 5544 5544 5544 5542 5541 5541 5541 5542 5544 5545 5545 5546 5548 5549 5549 5550
5636 5630 5625 5620 5615 5611 5606 5601 5596 5592 5588 5583 5580 5576 5573 5569 5566 5562 5559 5556 5553 5551 5548 5546 5544 5542 5542 5542 5541 5540 5539 5537 5537 5537 5538 5538 5539 5541 5541 5543 5544 5544 5545
5635 5629 5624 5618 5612 5608 5604 5599 5593 5589 5585 5581 5577 5574 5571 5566 5563 5559 5556 5554 5551 5548 5546 5544 5542 5540 5539 5539 5538 5538 5536 5534 5534 5534 5535 5535 5536 5537 5538 5539 5539 5540 5542
5633 5627 5622 5617 5610 5606 5602 5597 5591 5586 5583 5580 5577 5573 5569 5565 5561 5558 5555 5553 5550 5547 5545 5543 5541 5539 5538 5537 5536 5535 5533 5531 5531 5531 5532 5533 5533 5534 5535 5535 5536 5537 5539
5630 5625 5620 5614 5609 5605 5600 5594 5589 5585 5582 5579 5576 5571 5567 5564 5560 5557 5555 5552 5549 5546 5544 5542 5540 5539 5538 5537 5536 5534 5532 5530 5529 5529 5530 5531 5532 5533 5534 5534 5535 5536 5538
5627 5622 5617 5612 5607 5604 5599 5593 5588 5585 5582 5578 5574 5570 5566 5564 5561 5557 5554 5552 5549 5545 5543 5541 5540 5539 5538 5536 5535 5534 5533 5531 5530 5529 5530 5531 5532 5533 5534 5535 5536 5537 5537
5624 5620 5615 5610 5606 5602 5598 5592 5588 5585 5581 5576 5572 5568 5566 5563 5560 5557 5555 5552 5549 5546 5543 5541 5539 5539 5538 5537 5536 5535 5534 5533 5531 5531 5532 5532 5533 5534 5535 5536 5537 5538 5537
5622 5618 5613 5608 5604 5601 5597 5593 5589 5585 5580 5575 5571 5568 5565 5562 5560 5558 5556 5553 5551 5548 5546 5544 5542 5540 5539 5538 5537 5536 5535 5534 5534 5533 5534 5535 5536 5536 5537 5538 5539 5539 5539
5620 5617 5612 5607 5604 5600 5596 5593 5589 5585 5580 5575 5572 5568 5566 5563 5560 5559 5557 5556 5555 5552 5550 5548 5546 5543 5541 5542 5540 5538 5537 5536 5535 5535 5535 5536 5536 5537 5539 5540 5541 5541 5542
5619 5615 5611 5607 5604 5600 5596 5593 5590 5586 5581 5575 5572 5569 5566 5564 5562 5559 5559 5560 5558 5557 5556 5554 5551 5549 5548 5547 5544 5543 5541 5540 5539 5537 5536 5537 5538 5539 5540 5542 5543 5544 5545